[[{"header":{"parameterUnit":"m.s-1","parameterCategory":2,"la1":30.2991,"la2":30.254,"lo1":-89.0895,"lo2":-89.0444,"dy":0.0017,"dx":0.0017,"nx":28,"ny":28,"refTime":"2025-12-30T09:00:00:Z","depth":"0","parameterNumber":2,"parameterNumberName":"U-component_of_CURRENTS"},"data":[0,0,0,0,0,0,0,0,0,0,0,0,0,0,0,0,0,0,0,0,0,0,0,0,0,0,0,0,0,0,0,0,0,0,0,0,0,0,0,0,0,0,0,0,0,0,0,0,0,0,0,0,0,0,0,0,0,0,-0.2024,-0.2024,0,-0.2048,-0.2048,-0.2048,-0.2026,-0.2025,-0.2024,-0.2024,-0.2029,-0.2029,-0.203,0,0,0,0,0,0,0,0,0,0,0,0,0,-0.1973,-0.1974,-0.2024,-0.2024,-0.2025,-0.2048,-0.2048,-0.2048,-0.2026,-0.2025,-0.2024,-0.2023,-0.2028,-0.2029,-0.203,0,0,0,0,0,0,0,0,0,0,0,0,0,-0.1994,-0.1974,-0.2024,-0.2018,-0.2017,-0.2048,-0.2048,-0.2048,-0.2026,-0.2025,-0.2024,-0.2023,-0.2028,-0.2029,-0.203,-0.2061,0,0,-0.2034,-0.2035,0,0,0,0,0,0,0,0,-0.1993,-0.1996,-0.2018,-0.2018,-0.2018,-0.2034,-0.2032,-0.2052,-0.2026,-0.2021,-0.2023,-0.2022,-0.2031,-0.2032,-0.2036,-0.2061,-0.2061,-0.2034,-0.2035,-0.2036,-0.2036,0,0,0,0,0,0,0,-0.1992,-0.1995,-0.2031,-0.2019,-0.2019,-0.2019,-0.202,-0.2036,-0.203,-0.2021,-0.202,-0.2026,-0.203,-0.2035,-0.2036,-0.2061,-0.2034,-0.2035,-0.2036,-0.2037,-0.2106,-0.2107,0,0,0,0,0,0,-0.1993,-0.1994,-0.2031,-0.2032,-0.2004,-0.2021,-0.2022,-0.2029,-0.203,-0.203,-0.2027,-0.2025,-0.2034,-0.2035,-0.2036,-0.2068,-0.2036,-0.2037,-0.2038,-0.2104,-0.2106,-0.2107,0,0,0,0,0,0,-0.1992,-0.1996,-0.203,-0.2015,-0.2019,-0.2023,-0.203,-0.203,-0.203,-0.2035,-0.2034,-0.2027,-0.2033,-0.2035,-0.2052,-0.2068,-0.2037,-0.2039,-0.2103,-0.2105,-0.2106,-0.2134,0,0,0,0,0,0,-0.199,-0.1995,-0.1998,-0.2015,-0.202,-0.2053,-0.2031,-0.2031,-0.2036,-0.2033,-0.2035,-0.2034,-0.2032,-0.2051,-0.2054,-0.2069,-0.2039,-0.2102,-0.2104,-0.2106,-0.2132,-0.2136,-0.214,0,0,0,0,0,-0.1988,-0.2001,-0.1998,-0.2002,-0.2024,-0.2054,-0.2057,-0.2054,-0.2037,-0.2047,-0.2045,-0.2034,-0.2065,-0.2053,-0.2056,-0.2072,-0.2101,-0.2103,-0.2106,-0.213,-0.2135,-0.214,0,0,0,0,0,0,-0.1979,-0.2,-0.1997,-0.2014,-0.2034,-0.2051,-0.2058,-0.2056,-0.2063,-0.2054,-0.205,-0.2051,-0.2072,-0.2072,-0.2058,-0.2099,-0.2081,-0.2084,-0.2098,-0.2104,-0.2108,-0.2105,-0.2041,0,0,0,0,0,-0.1979,-0.199,-0.2015,-0.2025,-0.2037,-0.2046,-0.2055,-0.2057,-0.2067,-0.2067,-0.2069,-0.2074,-0.2088,-0.2094,-0.2106,-0.2131,-0.2121,-0.2144,-0.2148,-0.2151,-0.2153,-0.2168,-0.2174,-0.2115,-0.2115,-0.2115,0,0,-0.1977,-0.199,-0.1995,-0.2024,-0.2034,-0.2058,-0.2048,-0.2067,-0.208,-0.2069,-0.2083,-0.209,-0.2098,-0.2124,-0.2133,-0.2123,-0.216,-0.2155,-0.2157,-0.2156,-0.2172,-0.2177,-0.2182,-0.2117,-0.2116,-0.2116,0,0,-0.1983,-0.1993,-0.2005,-0.2027,-0.205,-0.2063,-0.2069,-0.2091,-0.2094,-0.2116,-0.2111,-0.2129,-0.2145,-0.216,-0.2167,-0.2205,-0.2183,-0.2207,-0.2226,-0.2242,-0.2246,-0.225,-0.2225,-0.2227,-0.2208,-0.2208,-0.2208,0,-0.1978,-0.1996,-0.2015,-0.2037,-0.2052,-0.2066,-0.2087,-0.2103,-0.2125,-0.2135,-0.2122,-0.2159,-0.2164,-0.22,-0.221,-0.2215,-0.2204,-0.2203,-0.2246,-0.225,-0.2254,-0.2228,-0.2229,-0.221,-0.221,-0.2209,-0.2209,0,-0.1995,-0.2011,-0.2024,-0.2053,-0.2077,-0.2098,-0.2127,-0.2146,-0.2148,-0.2162,-0.2193,-0.2206,-0.2226,-0.2235,-0.2232,-0.2268,-0.2242,-0.2249,-0.223,-0.2262,-0.2231,-0.2232,-0.2212,-0.2211,-0.2211,-0.2211,0,0,-0.1973,-0.2024,-0.2025,-0.2041,-0.2085,-0.2105,-0.214,-0.2176,-0.2193,-0.2215,-0.2238,-0.2269,-0.2271,-0.2281,-0.2286,-0.23,-0.231,-0.2284,-0.2284,-0.2252,-0.2312,-0.2226,-0.2219,-0.2323,-0.2324,-0.2325,-0.2272,0,-0.1975,-0.2011,-0.204,-0.2073,-0.2096,-0.213,-0.2162,-0.2197,-0.222,-0.2249,-0.2271,-0.2294,-0.2291,-0.2298,-0.2316,-0.2319,-0.2317,-0.2321,-0.2292,-0.229,-0.2206,-0.222,-0.2114,-0.2053,-0.2273,-0.2273,-0.2273,0,-0.1975,-0.1999,-0.2032,-0.2084,-0.2097,-0.2121,-0.217,-0.22,-0.2252,-0.2271,-0.2303,-0.2318,-0.2348,-0.2337,-0.2351,-0.2351,-0.233,-0.2324,-0.2322,-0.2235,-0.2208,-0.2063,-0.2047,-0.2,-0.2275,-0.2274,-0.2274,0,-0.1939,-0.1992,-0.2014,-0.2031,-0.2095,-0.2113,-0.2142,-0.2199,-0.2226,-0.2278,-0.2301,-0.2341,-0.2354,-0.2357,-0.2343,-0.2348,-0.2341,-0.2347,-0.2244,-0.2237,-0.2137,-0.2119,-0.2067,-0.2346,-0.2346,-0.2346,-0.2347,0,-0.1926,-0.194,-0.1996,-0.2006,-0.2032,-0.2086,-0.2118,-0.2157,-0.2216,-0.2244,-0.23,-0.2324,-0.2361,-0.2363,-0.2347,-0.2288,-0.2341,-0.2241,-0.2224,-0.214,-0.2124,-0.2071,-0.2092,-0.2344,-0.2345,-0.2345,-0.2346,0,-0.1875,-0.1916,-0.194,-0.1998,-0.2014,-0.2026,-0.209,-0.2112,-0.2181,-0.2218,-0.2233,-0.2308,-0.231,-0.2322,-0.2319,-0.2276,-0.2186,-0.2203,-0.2079,-0.2048,-0.1899,-0.1926,-0.1882,-0.1819,-0.2077,-0.2075,-0.2073,0,-0.185,-0.1857,-0.191,-0.1916,-0.1935,-0.1968,-0.1987,-0.2072,-0.2098,-0.2196,-0.2201,-0.2241,-0.2246,-0.2209,-0.215,-0.2087,-0.2092,-0.1941,-0.1937,-0.1866,-0.1886,-0.1919,-0.1873,-0.1807,-0.1803,-0.18,-0.1797,0,-0.1788,-0.1807,-0.1823,-0.1837,-0.1854,-0.1879,-0.1915,-0.1942,-0.2034,-0.2075,-0.2119,-0.2138,-0.2118,-0.2023,-0.1947,-0.1894,-0.1873,-0.187,-0.1844,-0.1705,-0.1693,-0.1631,-0.1847,-0.1768,-0.1771,-0.1773,-0.1775,-0.1776,-0.1727,-0.172,-0.1737,-0.1739,-0.1759,-0.1765,-0.1751,-0.181,-0.1843,-0.1884,-0.1974,-0.1976,-0.1922,-0.1807,-0.1728,-0.1558,-0.1659,-0.1503,-0.1549,-0.1594,-0.1516,-0.1644,-0.1523,-0.1524,-0.1525,-0.1526,-0.1527,0,-0.1637,-0.1635,-0.1634,-0.1633,-0.1606,-0.1652,-0.1673,-0.1645,-0.164,-0.1725,-0.1748,-0.1751,-0.1615,-0.1553,-0.1392,-0.1277,-0.124,-0.1234,-0.1266,-0.1238,-0.1373,-0.134,-0.1115,-0.1116,-0.1116,-0.1116,-0.1116,-0.1116,-0.159,-0.1553,-0.1549,-0.1472,-0.1464,-0.1393,-0.1377,-0.1364,-0.1394,-0.1418,-0.1469,-0.1552,-0.1545,-0.1474,-0.1252,-0.1143,-0.11,-0.1056,-0.1089,-0.1194,-0.1223,-0.1251,-0.1223,-0.0977,-0.0977,-0.0884,-0.0884,-0.0884]},{"header":{"parameterUnit":"m.s-1","parameterCategory":2,"la1":30.2991,"la2":30.254,"lo1":-89.0895,"lo2":-89.0444,"dy":0.0017,"dx":0.0017,"nx":28,"ny":28,"refTime":"2025-12-30T09:00:00:Z","depth":"0","parameterNumber":3,"parameterNumberName":"V-component_of_CURRENTS"},"data":[0,0,0,0,0,0,0,0,0,0,0,0,0,0,0,0,0,0,0,0,0,0,0,0,0,0,0,0,0,0,0,0,0,0,0,0,0,0,0,0,0,0,0,0,0,0,0,0,0,0,0,0,0,0,0,0,0,0,-0.0275,-0.0275,0,-0.0241,-0.024,-0.024,-0.0213,-0.0212,-0.0212,-0.0212,-0.0155,-0.0154,-0.0153,0,0,0,0,0,0,0,0,0,0,0,0,0,-0.0302,-0.0301,-0.0275,-0.0275,-0.0274,-0.0241,-0.024,-0.024,-0.0213,-0.0212,-0.0212,-0.0212,-0.0156,-0.0154,-0.0153,0,0,0,0,0,0,0,0,0,0,0,0,0,-0.0282,-0.0301,-0.0275,-0.0256,-0.0254,-0.0241,-0.024,-0.024,-0.0213,-0.0212,-0.0212,-0.0211,-0.0156,-0.0154,-0.0153,-0.0152,0,0,-0.0147,-0.0146,0,0,0,0,0,0,0,0,-0.0283,-0.0281,-0.0259,-0.0257,-0.0255,-0.023,-0.0229,-0.0209,-0.0213,-0.0229,-0.0212,-0.0211,-0.0178,-0.0175,-0.017,-0.0149,-0.0147,-0.0147,-0.0146,-0.0145,-0.0145,0,0,0,0,0,0,0,-0.0284,-0.0282,-0.0262,-0.0259,-0.0256,-0.0244,-0.0241,-0.0225,-0.0207,-0.0228,-0.0225,-0.0221,-0.0177,-0.0172,-0.0169,-0.0146,-0.0147,-0.0146,-0.0144,-0.0144,-0.012,-0.012,0,0,0,0,0,0,-0.0289,-0.0283,-0.0263,-0.0261,-0.0267,-0.0244,-0.024,-0.0239,-0.0208,-0.0202,-0.0221,-0.022,-0.0176,-0.0171,-0.0167,-0.017,-0.0145,-0.0144,-0.0143,-0.0119,-0.012,-0.012,0,0,0,0,0,0,-0.0289,-0.0287,-0.0265,-0.0271,-0.0267,-0.0244,-0.0243,-0.0239,-0.0233,-0.0203,-0.0197,-0.022,-0.0175,-0.0169,-0.016,-0.0167,-0.0143,-0.0141,-0.0119,-0.0119,-0.012,-0.0172,0,0,0,0,0,0,-0.029,-0.0288,-0.0291,-0.0271,-0.0267,-0.0264,-0.0243,-0.0238,-0.0231,-0.0228,-0.02,-0.0194,-0.0174,-0.0163,-0.0158,-0.0164,-0.014,-0.0118,-0.0119,-0.012,-0.017,-0.0175,-0.0179,0,0,0,0,0,-0.0291,-0.03,-0.0291,-0.0288,-0.0271,-0.0264,-0.0262,-0.0243,-0.0231,-0.0236,-0.0217,-0.0195,-0.0164,-0.0162,-0.0156,-0.0162,-0.0118,-0.0119,-0.012,-0.0168,-0.0174,-0.0178,0,0,0,0,0,0,-0.0313,-0.0297,-0.0287,-0.029,-0.028,-0.026,-0.026,-0.0247,-0.0236,-0.0233,-0.0202,-0.0196,-0.019,-0.017,-0.0168,-0.0157,-0.0137,-0.0137,-0.0175,-0.018,-0.0184,-0.019,-0.0138,0,0,0,0,0,-0.0319,-0.0321,-0.0303,-0.0306,-0.0302,-0.0282,-0.0277,-0.0266,-0.0251,-0.0245,-0.0224,-0.0203,-0.019,-0.0181,-0.0165,-0.0161,-0.0129,-0.016,-0.0164,-0.0168,-0.0169,-0.0132,-0.0133,-0.0123,-0.0123,-0.0123,0,0,-0.0327,-0.0319,-0.032,-0.0311,-0.03,-0.0307,-0.0278,-0.0275,-0.028,-0.0241,-0.024,-0.0218,-0.0192,-0.0189,-0.0184,-0.0173,-0.0154,-0.0169,-0.0173,-0.0171,-0.0133,-0.0134,-0.0134,-0.0124,-0.0124,-0.0124,0,0,-0.0353,-0.0339,-0.0352,-0.0348,-0.0337,-0.0326,-0.0327,-0.0309,-0.03,-0.0297,-0.027,-0.0252,-0.0232,-0.0214,-0.0203,-0.022,-0.0179,-0.0216,-0.0241,-0.0206,-0.0206,-0.0206,-0.0166,-0.0162,-0.0218,-0.0218,-0.0218,0,-0.0364,-0.0378,-0.0355,-0.0369,-0.0371,-0.0338,-0.0357,-0.0345,-0.0326,-0.032,-0.0304,-0.0268,-0.0244,-0.0235,-0.0242,-0.0229,-0.0202,-0.0226,-0.0211,-0.021,-0.0209,-0.0168,-0.0163,-0.022,-0.022,-0.022,-0.022,0,-0.04,-0.0412,-0.0419,-0.0426,-0.0425,-0.0434,-0.0416,-0.0409,-0.0391,-0.0374,-0.0357,-0.032,-0.0297,-0.0286,-0.027,-0.0255,-0.0235,-0.0222,-0.0199,-0.0213,-0.0169,-0.0163,-0.0224,-0.0223,-0.0222,-0.0222,0,0,-0.0427,-0.0443,-0.0447,-0.0464,-0.0457,-0.0464,-0.0467,-0.0462,-0.0463,-0.043,-0.0426,-0.0393,-0.0361,-0.0346,-0.0315,-0.0282,-0.0249,-0.0254,-0.0251,-0.0216,-0.0167,-0.0148,-0.0139,-0.0234,-0.0234,-0.0233,-0.0138,0,-0.0464,-0.0508,-0.0501,-0.0542,-0.0563,-0.0537,-0.0544,-0.0532,-0.0509,-0.0494,-0.0442,-0.0426,-0.0388,-0.0375,-0.0337,-0.0276,-0.0235,-0.0276,-0.0156,-0.0153,-0.0136,-0.0132,-0.0127,-0.0042,-0.0132,-0.0131,-0.013,0,-0.0504,-0.0529,-0.0577,-0.0605,-0.0611,-0.0624,-0.0626,-0.0628,-0.0592,-0.0571,-0.0534,-0.0491,-0.0441,-0.0403,-0.0296,-0.0325,-0.025,-0.0194,-0.0189,-0.0149,-0.0123,-0.0041,-0.0026,0.0114,-0.0119,-0.012,-0.0121,0,-0.0544,-0.0584,-0.0626,-0.0635,-0.0656,-0.0667,-0.0671,-0.0651,-0.0656,-0.0614,-0.0606,-0.0537,-0.0499,-0.0405,-0.0292,-0.0293,-0.0166,-0.015,-0.0057,-0.0054,-0.0014,-0.001,0.015,-0.0063,-0.0063,-0.0063,-0.0063,0,-0.0591,-0.0625,-0.0648,-0.0673,-0.0719,-0.071,-0.0741,-0.073,-0.0713,-0.0721,-0.0647,-0.0629,-0.0498,-0.0412,-0.0305,-0.0165,-0.0172,-0.0057,-0.0029,-0.0032,-0.0031,0.0122,0.0197,-0.006,-0.006,-0.0061,-0.0062,0,-0.0632,-0.0645,-0.0699,-0.073,-0.0741,-0.0773,-0.0797,-0.0815,-0.0786,-0.0791,-0.0781,-0.0694,-0.0578,-0.0441,-0.028,-0.0182,0.0041,0.0005,-0.0008,0.0016,0.0226,0.0297,0.0491,0.0573,0.0124,0.0125,0.0126,0,-0.0657,-0.0687,-0.0744,-0.0778,-0.0795,-0.0834,-0.0861,-0.0853,-0.0869,-0.0832,-0.0837,-0.073,-0.0655,-0.0411,-0.0219,-0.002,0.0103,0.0109,0.0112,0.0246,0.0346,0.0394,0.0453,0.0151,0.0152,0.0153,0.0154,0,-0.0705,-0.0722,-0.0766,-0.0836,-0.0878,-0.0927,-0.0959,-0.0984,-0.097,-0.0961,-0.0924,-0.0859,-0.062,-0.0398,-0.0134,-0.001,0.022,0.0132,0.028,0.039,0.0446,0.0534,0.0085,0.0161,0.016,0.016,0.0159,0.0159,-0.0732,-0.0776,-0.083,-0.0894,-0.0948,-0.1007,-0.1042,-0.1067,-0.1088,-0.1072,-0.0995,-0.0885,-0.0545,-0.0174,-0.0022,0.0307,0.0314,0.0412,0.0491,0.0529,0.0602,0.0167,0.0263,0.0263,0.0263,0.0263,0.0263,0,-0.0765,-0.0815,-0.0883,-0.0963,-0.1028,-0.104,-0.1097,-0.1118,-0.1142,-0.1109,-0.1053,-0.0726,-0.0371,-0.0031,0.0432,0.0643,0.07,0.0758,0.0838,0.0883,0.0507,0.05,0.064,0.064,0.064,0.064,0.064,0.064,-0.0785,-0.0856,-0.0895,-0.1007,-0.1061,-0.1126,-0.1155,-0.1178,-0.1158,-0.1074,-0.0927,-0.0818,-0.0291,0.0495,0.0951,0.1003,0.1201,0.1196,0.1312,0.1058,0.1032,0.1006,0.1018,0.1265,0.1266,0.165,0.1654,0.1657]}],[{"header":{"parameterUnit":"m.s-1","parameterCategory":2,"la1":30.2991,"la2":30.254,"lo1":-89.0895,"lo2":-89.0444,"dy":0.0017,"dx":0.0017,"nx":28,"ny":28,"refTime":"2025-12-30T09:00:00:Z","depth":"2","parameterNumber":2,"parameterNumberName":"U-component_of_CURRENTS"},"data":[0,0,0,0,0,0,0,0,0,0,0,0,0,0,0,0,0,0,0,0,0,0,0,0,0,0,0,0,0,0,0,0,0,0,0,0,0,0,0,0,0,0,0,0,0,0,0,0,0,0,0,0,0,0,0,0,0,0,-0.2,-0.2001,0,-0.2027,-0.2027,-0.2028,-0.201,-0.2009,-0.2008,-0.2008,-0.2018,-0.2019,-0.2019,0,0,0,0,0,0,0,0,0,0,0,0,0,-0.1949,-0.195,-0.2,-0.2001,-0.2001,-0.2027,-0.2028,-0.2028,-0.201,-0.2009,-0.2008,-0.2007,-0.2017,-0.2018,-0.202,0,0,0,0,0,0,0,0,0,0,0,0,0,-0.1972,-0.195,-0.2,-0.1996,-0.1996,-0.2027,-0.2028,-0.2028,-0.201,-0.2009,-0.2008,-0.2007,-0.2017,-0.2018,-0.202,-0.2049,0,0,-0.2024,-0.2024,0,0,0,0,0,0,0,0,-0.197,-0.1973,-0.1996,-0.1997,-0.1997,-0.2015,-0.2013,-0.2034,-0.201,-0.2003,-0.2008,-0.2006,-0.2017,-0.2018,-0.2024,-0.2049,-0.205,-0.2024,-0.2025,-0.2025,-0.2026,0,0,0,0,0,0,0,-0.1969,-0.1972,-0.2009,-0.1997,-0.1997,-0.1999,-0.2001,-0.2017,-0.2014,-0.2004,-0.2003,-0.2009,-0.2017,-0.2023,-0.2024,-0.205,-0.2024,-0.2025,-0.2026,-0.2027,-0.2098,-0.2099,0,0,0,0,0,0,-0.1969,-0.1971,-0.2008,-0.201,-0.1983,-0.2001,-0.2003,-0.2009,-0.2014,-0.2015,-0.201,-0.2008,-0.2021,-0.2022,-0.2024,-0.2058,-0.2025,-0.2027,-0.2027,-0.2097,-0.2098,-0.21,0,0,0,0,0,0,-0.1968,-0.1972,-0.2007,-0.1992,-0.1997,-0.2003,-0.201,-0.201,-0.2012,-0.2019,-0.2019,-0.2011,-0.202,-0.2022,-0.2042,-0.2058,-0.2027,-0.2029,-0.2096,-0.2097,-0.2099,-0.2126,0,0,0,0,0,0,-0.1966,-0.1972,-0.1974,-0.1992,-0.1998,-0.2031,-0.2011,-0.2012,-0.2019,-0.2016,-0.2021,-0.2021,-0.2019,-0.204,-0.2043,-0.2059,-0.203,-0.2094,-0.2097,-0.2098,-0.2124,-0.2128,-0.2132,0,0,0,0,0,-0.1964,-0.1976,-0.1974,-0.1979,-0.2002,-0.2032,-0.2035,-0.2035,-0.202,-0.203,-0.203,-0.202,-0.2055,-0.2042,-0.2045,-0.2062,-0.2093,-0.2096,-0.2098,-0.2122,-0.2127,-0.2132,0,0,0,0,0,0,-0.1955,-0.1977,-0.1974,-0.1991,-0.2012,-0.203,-0.2038,-0.2037,-0.2046,-0.2038,-0.2036,-0.2038,-0.2061,-0.2062,-0.2047,-0.209,-0.2072,-0.2076,-0.2089,-0.2094,-0.2098,-0.2095,-0.2031,0,0,0,0,0,-0.1955,-0.1966,-0.1991,-0.2002,-0.2014,-0.2025,-0.2035,-0.2037,-0.2049,-0.205,-0.2055,-0.2061,-0.2076,-0.2083,-0.2097,-0.2122,-0.2113,-0.2136,-0.214,-0.2144,-0.2144,-0.2159,-0.2165,-0.2108,-0.2108,-0.2107,0,0,-0.1953,-0.1966,-0.1972,-0.2,-0.2012,-0.2036,-0.2028,-0.2047,-0.2062,-0.2052,-0.207,-0.2077,-0.2087,-0.2114,-0.2124,-0.2114,-0.2152,-0.2147,-0.215,-0.2148,-0.2162,-0.2168,-0.2172,-0.2109,-0.2109,-0.2109,0,0,-0.1959,-0.1969,-0.1982,-0.2003,-0.2028,-0.2042,-0.2048,-0.2071,-0.2076,-0.21,-0.2096,-0.2116,-0.2135,-0.2149,-0.2157,-0.2196,-0.2174,-0.2198,-0.2217,-0.2232,-0.2236,-0.224,-0.2217,-0.2218,-0.22,-0.22,-0.22,0,-0.1955,-0.1972,-0.1991,-0.2014,-0.203,-0.2045,-0.2066,-0.2083,-0.2107,-0.2118,-0.2107,-0.2146,-0.2154,-0.2189,-0.22,-0.2206,-0.2195,-0.2194,-0.2236,-0.224,-0.2244,-0.2219,-0.222,-0.2201,-0.2201,-0.2201,-0.2201,0,-0.1971,-0.1988,-0.2,-0.203,-0.2054,-0.2076,-0.2106,-0.2126,-0.2131,-0.2145,-0.2178,-0.2193,-0.2214,-0.2224,-0.2221,-0.2257,-0.2233,-0.2239,-0.222,-0.2251,-0.2223,-0.2224,-0.2204,-0.2203,-0.2203,-0.2202,0,0,-0.195,-0.2001,-0.2002,-0.2018,-0.2063,-0.2083,-0.2119,-0.2156,-0.2174,-0.2198,-0.222,-0.2254,-0.2257,-0.2267,-0.2273,-0.2287,-0.2297,-0.2272,-0.2272,-0.2241,-0.23,-0.2214,-0.2206,-0.231,-0.2311,-0.2312,-0.2262,0,-0.1952,-0.1988,-0.2017,-0.2051,-0.2073,-0.2108,-0.2141,-0.2177,-0.22,-0.223,-0.2253,-0.2276,-0.2275,-0.2283,-0.2301,-0.2305,-0.2304,-0.2308,-0.228,-0.2279,-0.2194,-0.2207,-0.2035,-0.1971,-0.2263,-0.2263,-0.2263,0,-0.1952,-0.1976,-0.2009,-0.2061,-0.2074,-0.2098,-0.2148,-0.2178,-0.223,-0.225,-0.2283,-0.2298,-0.2329,-0.2319,-0.2334,-0.2335,-0.2316,-0.2311,-0.2309,-0.2221,-0.2196,-0.1993,-0.1962,-0.2265,-0.2265,-0.2264,-0.2264,0,-0.1917,-0.1969,-0.1991,-0.2009,-0.2072,-0.2091,-0.2121,-0.2177,-0.2205,-0.2256,-0.2279,-0.2319,-0.2332,-0.2337,-0.2326,-0.2331,-0.2325,-0.2332,-0.2232,-0.2224,-0.2068,-0.2045,-0.2332,-0.2332,-0.2332,-0.2332,-0.2332,0,-0.1903,-0.1918,-0.1974,-0.1984,-0.2011,-0.2065,-0.2097,-0.2136,-0.2194,-0.2221,-0.2277,-0.2299,-0.2339,-0.2342,-0.2328,-0.2273,-0.2325,-0.2227,-0.2211,-0.207,-0.2049,-0.2302,-0.23,-0.233,-0.2331,-0.2331,-0.2332,0,-0.1853,-0.1895,-0.1919,-0.1977,-0.1993,-0.2006,-0.2069,-0.2091,-0.2159,-0.2193,-0.2209,-0.2282,-0.2284,-0.23,-0.23,-0.2259,-0.2227,-0.219,-0.2001,-0.1963,-0.211,-0.211,-0.2072,-0.2069,-0.2066,-0.2064,-0.2062,0,-0.1829,-0.1837,-0.189,-0.1896,-0.1916,-0.1949,-0.1969,-0.2052,-0.2076,-0.217,-0.2174,-0.2213,-0.2215,-0.2183,-0.2114,-0.2053,-0.2146,-0.1861,-0.1847,-0.2098,-0.2087,-0.209,-0.2094,-0.164,-0.1635,-0.1631,-0.1627,0,-0.177,-0.1789,-0.1805,-0.1819,-0.1837,-0.1862,-0.1896,-0.192,-0.2009,-0.2046,-0.2085,-0.2101,-0.2072,-0.1936,-0.1862,-0.181,-0.1861,-0.177,-0.2085,-0.1739,-0.1688,-0.1678,-0.1696,-0.1589,-0.1593,-0.1595,-0.1598,-0.1599,-0.1711,-0.1705,-0.1723,-0.1725,-0.1744,-0.1749,-0.1733,-0.1785,-0.1811,-0.1831,-0.1922,-0.1877,-0.1859,-0.1658,-0.1556,-0.1467,-0.161,-0.1537,-0.1551,-0.157,-0.1535,-0.1484,-0.1336,-0.1339,-0.1341,-0.1342,-0.1344,0,-0.1623,-0.1623,-0.1622,-0.1622,-0.1593,-0.164,-0.1657,-0.1619,-0.1601,-0.1642,-0.1645,-0.1479,-0.1373,-0.136,-0.1153,-0.1106,-0.1102,-0.1063,-0.1063,-0.1101,-0.1135,-0.108,-0.076,-0.0758,-0.0756,-0.0755,0,0,-0.1578,-0.1541,-0.1537,-0.1461,-0.1455,-0.1382,-0.1364,-0.1331,-0.1325,-0.1277,-0.1242,-0.1324,-0.134,-0.1062,-0.0982,-0.0841,-0.0968,-0.0792,-0.1262,-0.1303,-0.1336,-0.1408,-0.1366,0,0,0,0,0]},{"header":{"parameterUnit":"m.s-1","parameterCategory":2,"la1":30.2991,"la2":30.254,"lo1":-89.0895,"lo2":-89.0444,"dy":0.0017,"dx":0.0017,"nx":28,"ny":28,"refTime":"2025-12-30T09:00:00:Z","depth":"2","parameterNumber":3,"parameterNumberName":"V-component_of_CURRENTS"},"data":[0,0,0,0,0,0,0,0,0,0,0,0,0,0,0,0,0,0,0,0,0,0,0,0,0,0,0,0,0,0,0,0,0,0,0,0,0,0,0,0,0,0,0,0,0,0,0,0,0,0,0,0,0,0,0,0,0,0,-0.018,-0.018,0,-0.0146,-0.0146,-0.0146,-0.0119,-0.0119,-0.0118,-0.0118,-0.0062,-0.0061,-0.006,0,0,0,0,0,0,0,0,0,0,0,0,0,-0.0204,-0.0204,-0.018,-0.018,-0.0179,-0.0146,-0.0146,-0.0145,-0.0119,-0.0119,-0.0118,-0.0118,-0.0063,-0.0061,-0.006,0,0,0,0,0,0,0,0,0,0,0,0,0,-0.0185,-0.0204,-0.018,-0.0162,-0.016,-0.0146,-0.0146,-0.0145,-0.0119,-0.0119,-0.0118,-0.0118,-0.0063,-0.0061,-0.006,-0.0058,0,0,-0.0054,-0.0053,0,0,0,0,0,0,0,0,-0.0186,-0.0184,-0.0165,-0.0163,-0.0161,-0.0136,-0.0134,-0.0115,-0.0119,-0.0135,-0.0118,-0.0118,-0.0085,-0.0081,-0.0077,-0.0055,-0.0053,-0.0054,-0.0053,-0.0052,-0.0052,0,0,0,0,0,0,0,-0.0187,-0.0185,-0.0167,-0.0165,-0.0162,-0.0149,-0.0146,-0.013,-0.0113,-0.0134,-0.0132,-0.0127,-0.0084,-0.0079,-0.0075,-0.0052,-0.0054,-0.0052,-0.0051,-0.0051,-0.0027,-0.0027,0,0,0,0,0,0,-0.0192,-0.0186,-0.0168,-0.0166,-0.0172,-0.0149,-0.0145,-0.0145,-0.0114,-0.0108,-0.0127,-0.0126,-0.0082,-0.0078,-0.0073,-0.0078,-0.0052,-0.005,-0.0049,-0.0026,-0.0027,-0.0027,0,0,0,0,0,0,-0.0192,-0.0191,-0.017,-0.0175,-0.0171,-0.0149,-0.0148,-0.0144,-0.014,-0.0109,-0.0103,-0.0127,-0.0082,-0.0076,-0.0066,-0.0075,-0.005,-0.0048,-0.0026,-0.0027,-0.0027,-0.0082,0,0,0,0,0,0,-0.0193,-0.0191,-0.0195,-0.0175,-0.0171,-0.0169,-0.0149,-0.0144,-0.0137,-0.0135,-0.0107,-0.0101,-0.0081,-0.0069,-0.0065,-0.0072,-0.0047,-0.0025,-0.0026,-0.0027,-0.0079,-0.0084,-0.0088,0,0,0,0,0,-0.0194,-0.0203,-0.0195,-0.0193,-0.0176,-0.017,-0.0167,-0.0149,-0.0138,-0.0142,-0.0123,-0.0102,-0.0071,-0.0068,-0.0063,-0.007,-0.0025,-0.0026,-0.0027,-0.0077,-0.0083,-0.0088,0,0,0,0,0,0,-0.0216,-0.0201,-0.0191,-0.0195,-0.0186,-0.0165,-0.0167,-0.0154,-0.0142,-0.0139,-0.0109,-0.0103,-0.0097,-0.0077,-0.0075,-0.0065,-0.0044,-0.0044,-0.0084,-0.0089,-0.0094,-0.01,-0.0045,0,0,0,0,0,-0.0223,-0.0225,-0.0208,-0.0212,-0.0208,-0.0188,-0.0183,-0.0172,-0.0158,-0.0152,-0.0131,-0.011,-0.0097,-0.0088,-0.0073,-0.0069,-0.0039,-0.0069,-0.0074,-0.0077,-0.0079,-0.0047,-0.0049,-0.0031,-0.0031,-0.0031,0,0,-0.0231,-0.0224,-0.0225,-0.0216,-0.0206,-0.0213,-0.0184,-0.0182,-0.0187,-0.0148,-0.0148,-0.0125,-0.01,-0.0097,-0.0092,-0.0081,-0.0066,-0.0079,-0.0082,-0.0082,-0.0048,-0.005,-0.0051,-0.0031,-0.0031,-0.0031,0,0,-0.0257,-0.0245,-0.0258,-0.0254,-0.0244,-0.0232,-0.0234,-0.0216,-0.0208,-0.0205,-0.0179,-0.0162,-0.0142,-0.0124,-0.0113,-0.0132,-0.0091,-0.0128,-0.0155,-0.0124,-0.0125,-0.0126,-0.0087,-0.0084,-0.0129,-0.0129,-0.0129,0,-0.0269,-0.0283,-0.0261,-0.0274,-0.0277,-0.0245,-0.0263,-0.0252,-0.0233,-0.0229,-0.0213,-0.0178,-0.0155,-0.0148,-0.0155,-0.0142,-0.0116,-0.0138,-0.013,-0.013,-0.013,-0.0089,-0.0085,-0.0132,-0.0132,-0.0132,-0.0131,0,-0.0304,-0.0316,-0.0324,-0.0331,-0.0331,-0.034,-0.0322,-0.0317,-0.0299,-0.0284,-0.0269,-0.0233,-0.0212,-0.0202,-0.0185,-0.0175,-0.0153,-0.0141,-0.0118,-0.0135,-0.0091,-0.0086,-0.0136,-0.0135,-0.0134,-0.0134,0,0,-0.0331,-0.0347,-0.0351,-0.0368,-0.0362,-0.0369,-0.0373,-0.037,-0.0373,-0.0342,-0.034,-0.0309,-0.0279,-0.0265,-0.0234,-0.0206,-0.0178,-0.0177,-0.0174,-0.014,-0.0104,-0.0082,-0.0073,-0.0166,-0.0165,-0.0165,-0.0073,0,-0.0368,-0.0411,-0.0405,-0.0445,-0.0465,-0.0442,-0.045,-0.044,-0.0419,-0.0406,-0.0358,-0.0344,-0.0307,-0.0295,-0.0262,-0.0204,-0.0167,-0.0204,-0.009,-0.0086,-0.0066,-0.0067,-0.0067,0.0015,-0.0067,-0.0066,-0.0065,0,-0.0407,-0.0432,-0.0479,-0.0507,-0.0513,-0.0527,-0.0531,-0.0534,-0.0503,-0.0484,-0.045,-0.041,-0.0366,-0.0329,-0.0231,-0.0257,-0.0185,-0.0131,-0.0126,-0.0083,-0.0054,0.0019,0.0029,-0.0056,-0.0056,-0.0057,-0.0058,0,-0.0446,-0.0485,-0.0526,-0.0536,-0.0557,-0.0569,-0.0574,-0.0557,-0.0564,-0.0527,-0.0521,-0.0459,-0.0425,-0.0338,-0.0229,-0.0229,-0.0111,-0.0096,-0.0002,0.0001,0.0035,0.004,-0.0016,-0.0016,-0.0017,-0.0017,-0.0017,0,-0.0491,-0.0525,-0.0548,-0.0573,-0.0619,-0.0612,-0.0644,-0.0635,-0.0621,-0.0632,-0.0563,-0.0548,-0.0426,-0.0345,-0.0242,-0.0108,-0.0118,-0.0003,0.0025,0.0017,0.0018,-0.0018,-0.0019,-0.0013,-0.0014,-0.0015,-0.0015,0,-0.0531,-0.0545,-0.0597,-0.0629,-0.0641,-0.0672,-0.0698,-0.0718,-0.0693,-0.07,-0.0692,-0.0612,-0.0503,-0.0373,-0.0221,-0.0125,0.0,0.0055,0.0041,0.0065,0.0099,0.0094,0.017,0.0172,0.0173,0.0174,0.0175,0,-0.0556,-0.0585,-0.0642,-0.0676,-0.0694,-0.0733,-0.076,-0.0755,-0.0771,-0.074,-0.0746,-0.0646,-0.0573,-0.034,-0.0154,0.0038,0.0038,0.0156,0.0157,0.0098,0.0118,0.0111,0.0104,0.0188,0.0189,0.0189,0.019,0,-0.0602,-0.0619,-0.0662,-0.0732,-0.0775,-0.0823,-0.0856,-0.088,-0.0869,-0.0861,-0.0828,-0.0765,-0.0535,-0.0319,-0.0063,0.0051,0.0122,0.0178,0.0127,0.0131,0.012,0.0137,0.0129,0.0197,0.0196,0.0196,0.0195,0.0195,-0.0629,-0.0671,-0.0725,-0.079,-0.0843,-0.09,-0.0934,-0.0954,-0.0974,-0.0942,-0.0879,-0.0745,-0.0535,-0.0163,0.0018,0.0202,0.0189,0.0256,0.0251,0.0247,0.0223,0.0213,0.0305,0.0304,0.0304,0.0304,0.0304,0,-0.0659,-0.071,-0.0778,-0.0856,-0.0917,-0.0933,-0.0989,-0.0993,-0.1008,-0.0946,-0.088,-0.0624,-0.0374,-0.0149,0.015,0.0309,0.0299,0.0341,0.0303,0.0295,0.0289,0.0266,0.036,0.036,0.0361,0.0361,0,0,-0.0678,-0.0746,-0.0784,-0.0892,-0.0949,-0.1007,-0.1034,-0.1025,-0.0975,-0.0903,-0.0787,-0.0638,-0.0361,-0.0137,0.0068,0.0228,0.0217,0.0243,0.0184,0.0108,0.01,0.0229,0.0183,0,0,0,0,0]}],[{"header":{"parameterUnit":"m.s-1","parameterCategory":2,"la1":30.2991,"la2":30.254,"lo1":-89.0895,"lo2":-89.0444,"dy":0.0017,"dx":0.0017,"nx":28,"ny":28,"refTime":"2025-12-30T09:00:00:Z","depth":"4","parameterNumber":2,"parameterNumberName":"U-component_of_CURRENTS"},"data":[0,0,0,0,0,0,0,0,0,0,0,0,0,0,0,0,0,0,0,0,0,0,0,0,0,0,0,0,0,0,0,0,0,0,0,0,0,0,0,0,0,0,0,0,0,0,0,0,0,0,0,0,0,0,0,0,0,0,-0.1439,-0.144,0,-0.1514,-0.1514,-0.1515,-0.1556,-0.1556,-0.1556,-0.1556,-0.1639,-0.1641,-0.1643,0,0,0,0,0,0,0,0,0,0,0,0,0,-0.1352,-0.1353,-0.1439,-0.144,-0.1441,-0.1513,-0.1514,-0.1515,-0.1556,-0.1556,-0.1556,-0.1556,-0.1638,-0.164,-0.1643,0,0,0,0,0,0,0,0,0,0,0,0,0,-0.1403,-0.1353,-0.1439,-0.147,-0.1474,-0.1513,-0.1514,-0.1516,-0.1556,-0.1556,-0.1556,-0.1556,-0.1637,-0.164,-0.1643,-0.1657,0,0,-0.1653,-0.1654,0,0,0,0,0,0,0,0,-0.14,-0.1406,-0.1465,-0.1468,-0.1473,-0.1526,-0.1514,-0.1564,-0.1556,-0.1524,-0.1556,-0.1557,-0.1602,-0.1608,-0.162,-0.1661,-0.1664,-0.1653,-0.1655,-0.1656,-0.1657,0,0,0,0,0,0,0,-0.1397,-0.1403,-0.1468,-0.1466,-0.1471,-0.1488,-0.1495,-0.1524,-0.156,-0.1527,-0.153,-0.1539,-0.1604,-0.1617,-0.1623,-0.1665,-0.1653,-0.1655,-0.1657,-0.1658,-0.1785,-0.1787,0,0,0,0,0,0,-0.1388,-0.14,-0.1465,-0.147,-0.1437,-0.1489,-0.1497,-0.1508,-0.156,-0.1568,-0.1539,-0.1541,-0.1612,-0.1619,-0.1626,-0.1704,-0.1656,-0.1659,-0.1661,-0.1784,-0.1786,-0.1787,0,0,0,0,0,0,-0.1386,-0.1393,-0.1462,-0.1437,-0.1447,-0.149,-0.1502,-0.1509,-0.1546,-0.1569,-0.1578,-0.1571,-0.1612,-0.1621,-0.1675,-0.1705,-0.166,-0.1663,-0.1782,-0.1784,-0.1786,-0.1822,0,0,0,0,0,0,-0.1383,-0.1392,-0.1409,-0.1437,-0.1449,-0.1504,-0.1502,-0.1511,-0.155,-0.1554,-0.1599,-0.1605,-0.1613,-0.1671,-0.1678,-0.1708,-0.1665,-0.178,-0.1783,-0.1786,-0.1819,-0.1825,-0.1831,0,0,0,0,0,-0.138,-0.1399,-0.1409,-0.1418,-0.1466,-0.1505,-0.1514,-0.1544,-0.1552,-0.1576,-0.1607,-0.1605,-0.1694,-0.1675,-0.1683,-0.1715,-0.1779,-0.1782,-0.1785,-0.1816,-0.1824,-0.1831,0,0,0,0,0,0,-0.1373,-0.1406,-0.1418,-0.1448,-0.1482,-0.1513,-0.1541,-0.1558,-0.1601,-0.161,-0.1627,-0.1637,-0.1694,-0.1702,-0.168,-0.176,-0.1736,-0.1741,-0.1756,-0.1764,-0.1769,-0.1758,-0.1668,0,0,0,0,0,-0.1377,-0.1402,-0.1435,-0.1462,-0.1482,-0.1515,-0.1539,-0.156,-0.1595,-0.1615,-0.1647,-0.168,-0.1711,-0.1736,-0.1765,-0.1812,-0.1796,-0.1837,-0.1843,-0.1848,-0.1845,-0.1853,-0.1859,-0.1799,-0.1799,-0.1799,0,0,-0.1383,-0.1405,-0.142,-0.1463,-0.1492,-0.1527,-0.1531,-0.1575,-0.1608,-0.1617,-0.1681,-0.1705,-0.1729,-0.178,-0.1806,-0.1794,-0.1856,-0.1852,-0.1856,-0.1851,-0.1857,-0.1863,-0.1868,-0.1801,-0.1801,-0.18,0,0,-0.1398,-0.1426,-0.145,-0.1482,-0.153,-0.1552,-0.1569,-0.1617,-0.1647,-0.1703,-0.1717,-0.1759,-0.1815,-0.1835,-0.185,-0.1908,-0.1886,-0.1923,-0.1946,-0.1954,-0.1959,-0.1962,-0.1938,-0.194,-0.1926,-0.1926,-0.1926,0,-0.1405,-0.1436,-0.1466,-0.1498,-0.1527,-0.1565,-0.1599,-0.1636,-0.1697,-0.1722,-0.1731,-0.1812,-0.1837,-0.1886,-0.1907,-0.1921,-0.1909,-0.1915,-0.196,-0.1963,-0.1967,-0.1941,-0.1942,-0.1928,-0.1928,-0.1928,-0.1928,0,-0.1429,-0.1467,-0.1487,-0.1536,-0.1574,-0.1612,-0.166,-0.1706,-0.1743,-0.1772,-0.1838,-0.1873,-0.1915,-0.1936,-0.1941,-0.1984,-0.1962,-0.1964,-0.1936,-0.1974,-0.1945,-0.1946,-0.1931,-0.1931,-0.193,-0.1929,0,0,-0.1408,-0.1488,-0.1497,-0.1527,-0.1597,-0.1627,-0.169,-0.1747,-0.1783,-0.1845,-0.1886,-0.195,-0.1964,-0.1981,-0.1999,-0.2012,-0.2026,-0.2001,-0.2,-0.1966,-0.2021,-0.1878,-0.1864,-0.2036,-0.2037,-0.2037,-0.1986,0,-0.1419,-0.1478,-0.1518,-0.1582,-0.1616,-0.1673,-0.1724,-0.1783,-0.183,-0.1882,-0.1922,-0.1969,-0.1982,-0.2005,-0.2024,-0.2029,-0.203,-0.2038,-0.1998,-0.1996,-0.1856,-0.1861,-0.204,-0.1986,-0.1986,-0.1986,-0.1986,0,-0.142,-0.1462,-0.1523,-0.1602,-0.1623,-0.1669,-0.1748,-0.1798,-0.1872,-0.191,-0.196,-0.1988,-0.203,-0.203,-0.2048,-0.2052,-0.2039,-0.2034,-0.2032,-0.1884,-0.1853,-0.1945,-0.1986,-0.1986,-0.1986,-0.1986,-0.1986,0,-0.1375,-0.1462,-0.151,-0.154,-0.1635,-0.1677,-0.1727,-0.1807,-0.1846,-0.1923,-0.195,-0.2005,-0.2028,-0.2036,-0.2034,-0.2044,-0.2029,-0.2039,-0.1892,-0.1881,-0.201,-0.2007,-0.2038,-0.2038,-0.2038,-0.2038,-0.2039,0,-0.1353,-0.1395,-0.1498,-0.1522,-0.158,-0.1656,-0.1717,-0.1775,-0.1849,-0.1877,-0.1957,-0.197,-0.2033,-0.2034,-0.2028,-0.1944,-0.2022,-0.1881,-0.1857,-0.2026,-0.2025,-0.2009,-0.2006,-0.2036,-0.2037,-0.2037,-0.2038,0,-0.129,-0.1362,-0.1421,-0.1527,-0.1561,-0.16,-0.17,-0.1731,-0.1817,-0.1852,-0.1874,-0.1946,-0.1939,-0.1969,-0.197,-0.1911,-0.1865,-0.1818,-0.1972,-0.196,-0.1712,-0.1712,-0.1638,-0.1632,-0.1627,-0.1624,-0.162,0,-0.126,-0.1287,-0.1403,-0.1434,-0.1485,-0.1557,-0.1596,-0.1699,-0.1722,-0.1812,-0.1804,-0.184,-0.1869,-0.1745,-0.1798,-0.1751,-0.1741,-0.1696,-0.1722,-0.1685,-0.1671,-0.1678,-0.1685,-0.1613,-0.1612,-0.161,-0.1609,0,-0.1194,-0.1249,-0.1296,-0.1358,-0.1411,-0.146,-0.152,-0.1525,-0.1622,-0.1716,-0.1681,-0.1667,-0.1649,-0.1641,-0.1612,-0.1588,-0.1715,-0.1647,-0.1657,-0.1682,-0.1654,-0.1646,-0.1658,-0.1593,-0.1595,-0.1597,-0.1598,0,-0.1143,-0.1158,-0.1223,-0.1263,-0.1324,-0.1333,-0.1386,-0.1401,-0.1438,-0.1537,-0.1514,-0.1558,-0.1624,-0.1553,-0.1528,-0.1488,-0.1472,-0.1425,-0.1447,-0.1465,-0.1434,-0.1375,-0.1192,0,0,0,0,0,-0.1082,-0.1084,-0.1116,-0.1156,-0.1208,-0.1239,-0.1316,-0.137,-0.1461,-0.1392,-0.145,-0.1426,-0.1383,-0.1408,-0.133,-0.1452,-0.1482,-0.1353,-0.1442,-0.1503,-0.1522,-0.1502,0,0,0,0,0,0,-0.1043,-0.1073,-0.1079,-0.1049,-0.105,-0.1092,-0.1135,-0.1203,-0.1174,-0.1272,-0.1257,-0.1325,-0.1311,-0.1403,-0.1296,-0.1302,-0.1323,-0.1386,-0.1382,-0.1493,-0.151,-0.1525,-0.151,0,0,0,0,0]},{"header":{"parameterUnit":"m.s-1","parameterCategory":2,"la1":30.2991,"la2":30.254,"lo1":-89.0895,"lo2":-89.0444,"dy":0.0017,"dx":0.0017,"nx":28,"ny":28,"refTime":"2025-12-30T09:00:00:Z","depth":"4","parameterNumber":3,"parameterNumberName":"V-component_of_CURRENTS"},"data":[0,0,0,0,0,0,0,0,0,0,0,0,0,0,0,0,0,0,0,0,0,0,0,0,0,0,0,0,0,0,0,0,0,0,0,0,0,0,0,0,0,0,0,0,0,0,0,0,0,0,0,0,0,0,0,0,0,0,-0.0056,-0.0056,0,-0.0035,-0.0034,-0.0034,-0.0012,-0.0012,-0.0011,-0.0011,0.0033,0.0034,0.0035,0,0,0,0,0,0,0,0,0,0,0,0,0,-0.0059,-0.0059,-0.0056,-0.0056,-0.0055,-0.0035,-0.0034,-0.0034,-0.0012,-0.0012,-0.0011,-0.0011,0.0033,0.0034,0.0035,0,0,0,0,0,0,0,0,0,0,0,0,0,-0.005,-0.0059,-0.0056,-0.0042,-0.004,-0.0035,-0.0034,-0.0034,-0.0012,-0.0012,-0.0011,-0.0011,0.0033,0.0034,0.0035,0.0033,0,0,0.0039,0.004,0,0,0,0,0,0,0,0,-0.005,-0.005,-0.0044,-0.0043,-0.0041,-0.0025,-0.0019,-0.001,-0.0012,-0.0023,-0.0011,-0.001,0.0016,0.0018,0.0021,0.0036,0.0037,0.0039,0.004,0.0041,0.0041,0,0,0,0,0,0,0,-0.0051,-0.0051,-0.0048,-0.0044,-0.0042,-0.003,-0.0028,-0.0017,-0.0007,-0.0022,-0.002,-0.0018,0.0017,0.0019,0.0022,0.0038,0.0039,0.004,0.0041,0.0042,0.0052,0.0051,0,0,0,0,0,0,-0.0055,-0.0051,-0.0048,-0.0047,-0.0044,-0.003,-0.0028,-0.0031,-0.0007,-0.0003,-0.0018,-0.0017,0.0017,0.002,0.0024,0.0013,0.0041,0.0042,0.0043,0.0052,0.0052,0.0051,0,0,0,0,0,0,-0.0055,-0.0055,-0.0049,-0.0048,-0.0046,-0.0031,-0.0034,-0.0031,-0.0028,-0.0004,0.0,-0.0018,0.0017,0.0022,0.0027,0.0015,0.0042,0.0044,0.0053,0.0052,0.0052,-0.0001,0,0,0,0,0,0,-0.0055,-0.0055,-0.006,-0.0049,-0.0047,-0.0052,-0.0034,-0.0031,-0.0027,-0.0025,-0.0003,0.0002,0.0018,0.0025,0.0028,0.0018,0.0045,0.0054,0.0053,0.0052,0.0001,-0.0004,-0.0008,0,0,0,0,0,-0.0056,-0.0066,-0.0061,-0.006,-0.0053,-0.0053,-0.0051,-0.0038,-0.0027,-0.0032,-0.0017,0.0001,0.0022,0.0025,0.003,0.0019,0.0054,0.0053,0.0052,0.0003,-0.0003,-0.0008,0,0,0,0,0,0,-0.0071,-0.0065,-0.0058,-0.0067,-0.0062,-0.0049,-0.0052,-0.0042,-0.0034,-0.0031,-0.0007,-0.0002,-0.0001,0.0016,0.002,0.002,0.0041,0.0041,0.0003,-0.0003,-0.0007,-0.0017,0.0046,0,0,0,0,0,-0.0077,-0.0083,-0.0074,-0.0081,-0.008,-0.0066,-0.0064,-0.0056,-0.0047,-0.0043,-0.0026,-0.0011,-0.0003,0.0003,0.0014,0.0013,0.0035,0.001,0.0005,0.0001,-0.0005,0.001,0.0006,0.0047,0.0047,0.0047,0,0,-0.0084,-0.0082,-0.0085,-0.0085,-0.0079,-0.0088,-0.0064,-0.0066,-0.0074,-0.0039,-0.0044,-0.0026,-0.0007,-0.001,-0.0008,0.0004,0.0003,-0.0,-0.0004,-0.0007,0.0008,0.0004,0.0001,0.0047,0.0047,0.0047,0,0,-0.0106,-0.0101,-0.0114,-0.0115,-0.0111,-0.0105,-0.0107,-0.0097,-0.0093,-0.0095,-0.0074,-0.0064,-0.005,-0.004,-0.0034,-0.0056,-0.0023,-0.0051,-0.0081,-0.0068,-0.0071,-0.0074,-0.0042,-0.0042,-0.0052,-0.0052,-0.0052,0,-0.0115,-0.0132,-0.0118,-0.0133,-0.0138,-0.0116,-0.0134,-0.013,-0.0119,-0.012,-0.0104,-0.0086,-0.0067,-0.0072,-0.0079,-0.0067,-0.0047,-0.0064,-0.0074,-0.0076,-0.0078,-0.0045,-0.0044,-0.0055,-0.0054,-0.0054,-0.0054,0,-0.0146,-0.0161,-0.0169,-0.0181,-0.0186,-0.0197,-0.019,-0.0192,-0.0181,-0.0173,-0.0171,-0.0144,-0.0133,-0.0125,-0.011,-0.0116,-0.0093,-0.0083,-0.0062,-0.0086,-0.0049,-0.0047,-0.0059,-0.0058,-0.0057,-0.0056,0,0,-0.0162,-0.0187,-0.0191,-0.0209,-0.0213,-0.0223,-0.0237,-0.0244,-0.0254,-0.0236,-0.0245,-0.0227,-0.0204,-0.0195,-0.017,-0.0156,-0.0147,-0.0129,-0.0127,-0.0101,-0.0104,-0.0082,-0.0077,-0.014,-0.014,-0.014,-0.007,0,-0.0191,-0.0232,-0.0235,-0.0276,-0.0296,-0.0288,-0.0305,-0.0308,-0.0299,-0.03,-0.027,-0.0267,-0.0234,-0.0227,-0.021,-0.0167,-0.0145,-0.0166,-0.0083,-0.008,-0.006,-0.0075,-0.0141,-0.0068,-0.0068,-0.0067,-0.0067,0,-0.022,-0.0245,-0.0291,-0.0329,-0.0337,-0.0358,-0.0379,-0.039,-0.0383,-0.0374,-0.0359,-0.0331,-0.0309,-0.0276,-0.0213,-0.0228,-0.0172,-0.0132,-0.0128,-0.0089,-0.0054,-0.0041,-0.0063,-0.0063,-0.0063,-0.0064,-0.0064,0,-0.0239,-0.0285,-0.0326,-0.0338,-0.0373,-0.0394,-0.041,-0.0413,-0.0428,-0.0417,-0.0419,-0.0385,-0.0365,-0.0305,-0.0218,-0.0218,-0.0138,-0.0125,-0.0048,-0.0044,-0.0061,-0.0059,-0.0077,-0.0077,-0.0078,-0.0078,-0.0078,0,-0.0267,-0.0301,-0.0341,-0.0364,-0.0417,-0.0425,-0.0468,-0.0473,-0.048,-0.0498,-0.0458,-0.0454,-0.0373,-0.0315,-0.0234,-0.0133,-0.0147,-0.0055,-0.0031,-0.0083,-0.0084,-0.0058,-0.0057,-0.0075,-0.0076,-0.0076,-0.0077,0,-0.0282,-0.0307,-0.036,-0.0409,-0.0429,-0.0464,-0.0512,-0.0537,-0.0535,-0.0554,-0.0554,-0.0508,-0.0429,-0.0334,-0.0225,-0.0153,-0.0059,-0.0015,-0.0068,-0.0047,0.0032,0.003,0.007,0.0072,0.0073,0.0073,0.0074,0,-0.0292,-0.0319,-0.0392,-0.043,-0.0457,-0.0508,-0.0544,-0.0563,-0.0583,-0.0583,-0.059,-0.0528,-0.0481,-0.0307,-0.0207,-0.0048,-0.0021,0.0034,0.0022,0.0025,0.0045,0.0041,0.0037,0.0076,0.0076,0.0076,0.0077,0,-0.031,-0.0337,-0.038,-0.0457,-0.051,-0.0566,-0.0612,-0.063,-0.0644,-0.0648,-0.0609,-0.0524,-0.0429,-0.03,-0.0171,-0.006,-0.0005,0.0045,0.0044,0.0033,0.0032,0.005,0.0045,0.008,0.008,0.0079,0.0079,0,-0.0318,-0.0354,-0.0412,-0.0478,-0.0547,-0.0601,-0.0627,-0.0642,-0.0657,-0.0647,-0.0633,-0.0532,-0.0476,-0.0304,-0.0192,-0.0077,-0.0047,-0.0008,-0.0006,-0.0008,-0.0053,-0.0067,-0.0032,0,0,0,0,0,-0.0321,-0.0364,-0.0429,-0.0503,-0.0571,-0.0607,-0.0662,-0.0677,-0.0689,-0.0661,-0.0644,-0.0551,-0.0381,-0.0313,-0.0192,-0.0174,-0.0032,-0.0029,0.0014,0.01,0.0096,0.0058,0,0,0,0,0,0,-0.0327,-0.0387,-0.0425,-0.0505,-0.0555,-0.0625,-0.0659,-0.067,-0.0647,-0.0643,-0.0553,-0.0511,-0.0347,-0.0444,-0.0186,-0.0153,-0.0107,0.0047,0.005,0.0103,0.0099,0.0096,0.0055,0,0,0,0,0]}]]